Location: Unspecified
(0.0000°N, 0.0000°E)
Time: 00:42:12
(UTC+00:00)

A-11 Canister half - Pass Details

Date: 09 February 2023
Orbit: 1526 x 1682 km, 47.3° (Epoch: 29 March)

Event Time Altitude Azimuth Distance (km) Brightness Sun altitude
Rises 11:08:29 0° 346° (NNW) 4,743 11.4 68.1°
Reaches altitude 10° 11:12:30 10° 0° (N) 3,787 11.0 68.8°
Maximum altitude 11:19:35 23° 48° (NE) 2,956 10.8 70.1°
Drops below altitude 10° 11:26:47 10° 96° (E) 3,885 11.5 71.2°
Sets 11:30:55 0° 110° (ESE) 4,896 11.8 71.8°
